Regional Weather Roundup
Issued by NWS

Home | Current Version | Previous Version | Graphics & Text | Print | Product List | Glossary On
Versions: 1 2 3 4 5 6 7 8 9 10 11 12 13 14 15 16 17 18 19 20 21 22 23 24 25 26 27 28 29 30 31 32 33 34 35 36 37 38 39 40 41 42 43 44 45 46 47 48 49 50
000
ASUS45 KBOU 261610
RWRCO

WEATHER ROUNDUP FOR COLORADO
NATIONAL WEATHER SERVICE PUEBLO CO
1000 AM MDT THU APR 26 2018

NOTE: "FAIR" INDICATES FEW OR NO CLOUDS BELOW 12000 FEET WITH NO
SIGNIFICANT WEATHER AND/OR OBSTRUCTIONS TO VISIBILITY.

COZ001>005-013-030-031-261700-
...NORTHWEST COLORADO...

CITY           SKY/WX    TMP DP  RH WIND       PRES   REMARKS
CRAIG          SUNNY     51  26  37 N5        30.30S
HAYDEN         SUNNY     48  25  40 CALM      30.31S
MEEKER         SUNNY     49  23  36 VRB3      30.29F
RABBIT EARS PA NOT AVBL
STEAMBOAT SPGS FAIR      45  24  44 CALM      30.29R
WALDEN         FAIR      39  19  45 NW13      30.32S
$$

COZ006>008-011-261700-
...WEST CENTRAL VALLEYS...

CITY           SKY/WX    TMP DP  RH WIND       PRES   REMARKS
GRAND JUNCTION SUNNY     61  23  23 W5        30.20F
MONTROSE       SUNNY     54  16  22 CALM      30.24S
EAGLE          SUNNY     51  19  28 E3        30.28S
RIFLE          SUNNY     54  22  28 CALM      30.24F
DELTA          NOT AVBL
NUCLA          FAIR      59  12  15 NW9       30.25S
$$

COZ017>023-064>068-261700-
...SOUTHWEST COLORADO...

CITY           SKY/WX    TMP DP  RH WIND       PRES   REMARKS
DURANGO        SUNNY     57  12  17 E6        30.15S
CORTEZ         SUNNY     64  12  13 N17G25    30.17S
PAGOSA SPRINGS FAIR      56   9  15 CALM      30.19F
TELLURIDE      SUNNY     50  11  21 N3        30.31R
WOLF CREEK PAS NOT AVBL
$$

COZ009-010-012-014-032>034-037-058>063-261700-
...CENTRAL COLORADO...

CITY           SKY/WX    TMP DP  RH WIND       PRES   REMARKS
ASPEN          MOSUNNY   49  16  26 W3        30.26S
BUENA VISTA    FAIR      51  13  21 N15G22    30.23S
COPPER MTN     NOT AVBL
BERTHOUD PASS  CLOUDY    19  10  68 N6G22     30.35R WCI  11
COTTONWOOD PAS SUNNY     48  16  27 E5        30.28S
GUNNISON       SUNNY     48  17  29 SW3       30.25F
KREMMLING      SUNNY     52  27  37 NW10      30.31S
LEADVILLE      MOSUNNY   38  13  35 N18G28    30.28R
MONARCH PASS   SUNNY     32  10  40 N5        30.45R WCI  27
SALIDA         FAIR      52  19  27 SE7       30.30S
SUNLIGHT       SUNNY     32  14  47 N5        30.40R WCI  27
WILKERSON PASS CLOUDY    28  21  74 E7        30.35R WCI  21
$$

COZ069>075-261700-
...SAN LUIS VALLEY/SANGRE DE CRISTO MOUNTAINS...

CITY           SKY/WX    TMP DP  RH WIND       PRES   REMARKS
ALAMOSA        SUNNY     57  10  15 N20G26    30.19S
DEL NORTE      FAIR      55  12  18 N13G24    30.21S
LA VETA PASS   MOSUNNY   37  27  65 NE15G22   30.42R
SAGUACHE       NOT AVBL
$$

COZ035-036-038>040-261700-
...NORTHERN COLORADO FRONT RANGE...

CITY           SKY/WX    TMP DP  RH WIND       PRES   REMARKS
DENVER INTL AP CLOUDY    50  30  46 N22G29    30.28R
DMNS CITY PARK NOT AVBL
AURORA         NOT AVBL
FRONT RANGE AP PTSUNNY   48  32  53 N18G30    30.29R
ERIE MUNI ARPT CLOUDY    52  28  39 NE16G22   30.33R
BOULDER MUN AP PTSUNNY   50  30  46 NE8       30.28R
CENTENNIAL     CLOUDY    44  29  55 N16G24    30.30R
BROOMFIELD     NOT AVBL
LOVELAND       MOSUNNY   52  30  43 N18       30.29R
LONGMONT       FAIR      55  29  37 N18G26    30.28S
$$

COZ041-046-047-076>085-087-088-261700-
...PIKES PEAK/PALMER DIVIDE AND SOUTHERN FOOTHILLS...

CITY           SKY/WX    TMP DP  RH WIND       PRES   REMARKS
COLO. SPRINGS  MOSUNNY   46  30  53 N31G41    30.28R
A. F. ACADEMY  LGT RAIN  42  32  67 N22G30    30.29R
SCHRIEVER AFB  NOT AVBL
CHEYENNE MTN   NOT AVBL
ELLICOTT         N/A    N/A N/A N/A N37G48    30.21R
FALCON         LGT RAIN  40  33  76 N23G31    30.28R
FORT CARSON    MOSUNNY   48  30  49 N31G39    30.25R SQUALL
LIMON          MOSUNNY   50  28  42 N30G43    30.23R
MONUMENT HILL  LGT SNOW  34  32  93 N17G25    30.33R WCI  23
CANON CITY     FAIR      59  28  31 E5        30.19R
WALSENBURG     FAIR      55  27  33 NE22      30.24R
TRINIDAD       SUNNY     54  25  32 N21G33    30.23S
$$

COZ042>045-048>051-090-091-261700-
...NORTHEAST COLORADO...

CITY           SKY/WX    TMP DP  RH WIND       PRES   REMARKS
GREELEY ARPT   MOSUNNY   55  28  35 N21G28    30.28R
AKRON          MOSUNNY   51  30  44 N29G44    30.22R
BURLINGTON     MOSUNNY   56  34  43 N33G47    30.13R
WRAY           CLOUDY    55  30  38 N35G44    30.16R
YUMA           NOT AVBL
STERLING       NOT AVBL
HOLYOKE        FAIR      55  32  41 N31G38    30.18R
FORT MORGAN    CLOUDY    52  26  35 N18G25    30.28R
$$

COZ086-089-092>099-261700-
...SOUTHEAST COLORADO...

CITY           SKY/WX    TMP DP  RH WIND       PRES   REMARKS
PUEBLO         MOSUNNY   58  30  34 N31G53    30.18R
LA JUNTA       MOSUNNY   61  30  31 N30G41    30.18R
LAMAR          MOSUNNY   56  30  37 N26G43    30.11R
SPRINGFIELD      N/A     56  30  37 N41G54    30.06R
$$




USA.gov is the U.S. government's official web portal to all federal, state and local government web resources and services.